| time (UTC) | temp F | wind direction | speed MPH | gust MPH | rain 1hr in | rain 24hr in | rain mn in | humidity % | barometer mb |
| 20260503034039 | 54 | 332 | 4.0 | 5.0 | 0.00 | 0.00 | 0.00 | 68 | 1018.0 |
| 20260503033102 | 54 | 344 | 3.0 | 5.0 | 0.00 | 0.00 | 0.00 | 68 | 1017.9 |
| 20260503032039 | 54 | 337 | 4.0 | 6.0 | 0.00 | 0.00 | 0.00 | 67 | 1018.0 |
| 20260503031103 | 55 | 322 | 3.0 | 5.0 | 0.00 | 0.00 | 0.00 | 65 | 1018.0 |
| 20260503030038 | 55 | 352 | 3.0 | 5.0 | 0.00 | 0.00 | 0.00 | 65 | 1018.0 |
| 20260503025102 | 55 | 339 | 3.0 | 5.0 | 0.00 | 0.00 | 0.00 | 65 | 1018.1 |
| 20260503024038 | 55 | 328 | 3.0 | 5.0 | 0.00 | 0.00 | 0.00 | 65 | 1018.2 |
| 20260503023102 | 55 | 333 | 3.0 | 5.0 | 0.00 | 0.00 | 0.00 | 64 | 1018.3 |
| 20260503022039 | 55 | 319 | 3.0 | 5.0 | 0.00 | 0.00 | 0.00 | 64 | 1018.3 |
| 20260503021102 | 56 | 327 | 3.0 | 5.0 | 0.00 | 0.00 | 0.00 | 63 | 1018.3 |
| 20260503020751 | 56 | 336 | 3.0 | 5.0 | 0.00 | 0.00 | 0.00 | 62 | 1018.3 |
| 20260503015102 | 56 | 337 | 3.0 | 6.0 | 0.00 | 0.00 | 0.00 | 62 | 1018.3 |
| 20260503014038 | 56 | 349 | 4.0 | 5.0 | 0.00 | 0.00 | 0.00 | 61 | 1018.4 |
| 20260503012038 | 56 | 347 | 3.0 | 5.0 | 0.00 | 0.00 | 0.00 | 61 | 1018.5 |
| 20260503011102 | 56 | 333 | 3.0 | 5.0 | 0.00 | 0.00 | 0.00 | 61 | 1018.6 |
| 20260503010038 | 56 | 354 | 3.0 | 5.0 | 0.00 | 0.00 | 0.00 | 61 | 1018.7 |
| 20260503005102 | 56 | 344 | 3.0 | 5.0 | 0.00 | 0.00 | 0.00 | 62 | 1018.8 |
| 20260503004039 | 56 | 348 | 2.0 | 4.0 | 0.00 | 0.00 | 0.00 | 61 | 1018.8 |
| 20260503003102 | 57 | 318 | 2.0 | 5.0 | 0.00 | 0.00 | 0.00 | 60 | 1019.0 |
| 20260503002039 | 57 | 344 | 2.0 | 5.0 | 0.00 | 0.00 | 0.00 | 59 | 1019.1 |
| 20260503001103 | 57 | 324 | 3.0 | 5.0 | 0.00 | 0.00 | 0.00 | 58 | 1019.1 |
| 20260503000752 | 58 | 338 | 1.0 | 4.0 | 0.00 | 0.00 | 0.00 | 56 | 1019.2 |
| 20260502235103 | 58 | 314 | 2.0 | 4.0 | 0.00 | 0.00 | 0.00 | 56 | 1019.3 |
| 20260502234038 | 58 | 342 | 2.0 | 5.0 | 0.00 | 0.00 | 0.00 | 56 | 1019.4 |
| 20260502233102 | 58 | 355 | 1.0 | 4.0 | 0.00 | 0.00 | 0.00 | 56 | 1019.5 |
| 20260502232038 | 59 | 343 | 2.0 | 5.0 | 0.00 | 0.00 | 0.00 | 56 | 1019.6 |
| 20260502231102 | 59 | 0 | 0.0 | 3.0 | 0.00 | 0.00 | 0.00 | 56 | 1019.6 |
| 20260502230038 | 58 | 340 | 0.0 | 2.0 | 0.00 | 0.00 | 0.00 | 56 | 1019.6 |
| 20260502224038 | 59 | 315 | 0.0 | 3.0 | 0.00 | 0.00 | 0.00 | 55 | 1019.7 |
| 20260502223103 | 59 | 0.0 | 2.0 | 0.00 | 0.00 | 0.00 | 55 | 1019.7 | |
| 20260502222039 | 60 | 0.0 | 2.0 | 0.00 | 0.00 | 0.00 | 55 | 1019.7 | |
| 20260502221102 | 60 | 315 | 0.0 | 3.0 | 0.00 | 0.00 | 0.00 | 53 | 1019.7 |
| 20260502220751 | 60 | 0.0 | 2.0 | 0.00 | 0.00 | 0.00 | 53 | 1019.7 | |
| 20260502215102 | 60 | 0.0 | 1.0 | 0.00 | 0.00 | 0.00 | 53 | 1019.8 | |
| 20260502214038 | 60 | 0.0 | 1.0 | 0.00 | 0.00 | 0.00 | 53 | 1019.7 | |
| 20260502213102 | 60 | 0.0 | 1.0 | 0.00 | 0.00 | 0.00 | 53 | 1019.8 | |
| 20260502212038 | 60 | 0.0 | 2.0 | 0.00 | 0.00 | 0.00 | 53 | 1019.9 | |
| 20260502204038 | 61 | 0.0 | 0.0 | 0.00 | 0.00 | 0.00 | 50 | 1019.9 | |
| 20260502203102 | 62 | 0.0 | 0.0 | 0.00 | 0.00 | 0.00 | 49 | 1019.9 | |
| 20260502202039 | 62 | 0.0 | 1.0 | 0.00 | 0.00 | 0.00 | 47 | 1019.8 | |
| 20260502201102 | 63 | 0.0 | 0.0 | 0.00 | 0.00 | 0.00 | 45 | 1019.8 | |
| 20260502200750 | 63 | 0.0 | 0.0 | 0.00 | 0.00 | 0.00 | 45 | 1019.7 | |
| 20260502195102 | 64 | 0.0 | 0.0 | 0.00 | 0.00 | 0.00 | 42 | 1019.6 | |
| 20260502194038 | 64 | 0.0 | 0.0 | 0.00 | 0.00 | 0.00 | 42 | 1019.7 | |
| 20260502193102 | 65 | 0.0 | 0.0 | 0.00 | 0.00 | 0.00 | 42 | 1019.6 | |
| 20260502192038 | 65 | 0.0 | 0.0 | 0.00 | 0.00 | 0.00 | 41 | 1019.6 | |
| 20260502191103 | 66 | 0.0 | 0.0 | 0.00 | 0.00 | 0.00 | 38 | 1019.6 | |
| 20260502190038 | 66 | 0.0 | 0.0 | 0.00 | 0.00 | 0.00 | 37 | 1019.5 | |
| 20260502185102 | 67 | 0.0 | 0.0 | 0.00 | 0.00 | 0.00 | 36 | 1019.5 | |
| 20260502184038 | 67 | 0.0 | 0.0 | 0.00 | 0.00 | 0.00 | 34 | 1019.4 | |
| 20260502183102 | 68 | 0.0 | 0.0 | 0.00 | 0.00 | 0.00 | 34 | 1019.4 | |
| 20260502182038 | 69 | 0.0 | 0.0 | 0.00 | 0.00 | 0.00 | 32 | 1019.4 | |
| 20260502181102 | 70 | 0.0 | 0.0 | 0.00 | 0.00 | 0.00 | 31 | 1019.4 | |
| 20260502180751 | 70 | 0.0 | 0.0 | 0.00 | 0.00 | 0.00 | 29 | 1019.3 | |
| 20260502164038 | 73 | 180 | 0.0 | 3.0 | 0.00 | 0.00 | 0.00 | 24 | 1019.3 |
| 20260502163102 | 72 | 161 | 1.0 | 4.0 | 0.00 | 0.00 | 0.00 | 25 | 1019.4 |
| 20260502162038 | 73 | 142 | 1.0 | 4.0 | 0.00 | 0.00 | 0.00 | 24 | 1019.5 |
| 20260502161103 | 73 | 225 | 1.0 | 5.0 | 0.00 | 0.00 | 0.00 | 24 | 1019.6 |
| 20260502160750 | 73 | 138 | 1.0 | 4.0 | 0.00 | 0.00 | 0.00 | 23 | 1019.7 |
| 20260502152038 | 73 | 270 | 0.0 | 4.0 | 0.00 | 0.00 | 0.00 | 23 | 1020.0 |
| 20260502151102 | 73 | 205 | 1.0 | 6.0 | 0.00 | 0.00 | 0.00 | 22 | 1020.1 |
| 20260502123102 | 70 | 126 | 2.0 | 6.0 | 0.00 | 0.00 | 0.00 | 26 | 1022.3 |
| 20260502121103 | 70 | 266 | 2.0 | 4.0 | 0.00 | 0.00 | 0.00 | 27 | 1022.5 |
| 20260502120750 | 70 | 189 | 5.0 | 9.0 | 0.00 | 0.00 | 0.00 | 27 | 1022.7 |
| 20260502115103 | 70 | 146 | 3.0 | 8.0 | 0.00 | 0.00 | 0.00 | 29 | 1022.8 |
| 20260502114038 | 70 | 155 | 4.0 | 9.0 | 0.00 | 0.00 | 0.00 | 30 | 1022.9 |
| 20260502110038 | 68 | 216 | 2.0 | 7.0 | 0.00 | 0.00 | 0.00 | 32 | 1023.5 |
| 20260502105102 | 67 | 157 | 2.0 | 5.0 | 0.00 | 0.00 | 0.00 | 34 | 1023.7 |
| 20260502104039 | 68 | 169 | 3.0 | 5.0 | 0.00 | 0.00 | 0.00 | 34 | 1023.9 |
| 20260502103103 | 68 | 215 | 5.0 | 9.0 | 0.00 | 0.00 | 0.00 | 34 | 1024.0 |
| 20260502102039 | 67 | 22 | 2.0 | 4.0 | 0.00 | 0.00 | 0.00 | 36 | 1024.0 |
| 20260502101102 | 67 | 178 | 4.0 | 6.0 | 0.00 | 0.00 | 0.00 | 36 | 1024.2 |
| 20260502100750 | 67 | 175 | 3.0 | 6.0 | 0.00 | 0.00 | 0.00 | 37 | 1024.3 |
| 20260502091102 | 65 | 180 | 3.0 | 4.0 | 0.00 | 0.00 | 0.00 | 40 | 1024.9 |
| 20260502071103 | 62 | 6 | 1.0 | 2.0 | 0.00 | 0.00 | 0.00 | 52 | 1025.2 |
| 20260502070038 | 61 | 26 | 1.0 | 2.0 | 0.00 | 0.00 | 0.00 | 54 | 1025.3 |
| 20260502065103 | 60 | 9 | 1.0 | 3.0 | 0.00 | 0.00 | 0.00 | 56 | 1025.3 |
| 20260502064038 | 59 | 330 | 2.0 | 5.0 | 0.00 | 0.00 | 0.00 | 56 | 1025.3 |
| 20260502063102 | 58 | 352 | 2.0 | 5.0 | 0.00 | 0.00 | 0.00 | 59 | 1025.2 |
| 20260502062038 | 57 | 341 | 2.0 | 5.0 | 0.00 | 0.00 | 0.00 | 59 | 1025.2 |
| 20260502061102 | 56 | 323 | 2.0 | 5.0 | 0.00 | 0.00 | 0.00 | 60 | 1025.2 |
| 20260502060751 | 56 | 350 | 3.0 | 5.0 | 0.00 | 0.00 | 0.00 | 62 | 1025.2 |
| 20260502055102 | 55 | 6 | 3.0 | 6.0 | 0.00 | 0.00 | 0.00 | 64 | 1025.2 |
| 20260502054038 | 54 | 349 | 4.0 | 7.0 | 0.00 | 0.00 | 0.00 | 66 | 1025.3 |
| 20260502053102 | 54 | 328 | 4.0 | 7.0 | 0.00 | 0.00 | 0.00 | 67 | 1025.2 |
| 20260502052038 | 53 | 340 | 3.0 | 5.0 | 0.00 | 0.00 | 0.00 | 68 | 1025.2 |
| 20260502051102 | 52 | 327 | 3.0 | 6.0 | 0.00 | 0.00 | 0.00 | 70 | 1025.1 |
| 20260502050039 | 52 | 346 | 3.0 | 5.0 | 0.00 | 0.00 | 0.00 | 71 | 1025.1 |
| 20260502045102 | 51 | 334 | 3.0 | 5.0 | 0.00 | 0.00 | 0.00 | 73 | 1025.1 |
| 20260502044038 | 51 | 338 | 3.0 | 5.0 | 0.00 | 0.00 | 0.00 | 74 | 1025.1 |
| 20260502043102 | 51 | 353 | 3.0 | 5.0 | 0.00 | 0.00 | 0.00 | 74 | 1025.1 |
| 20260502042038 | 51 | 337 | 3.0 | 4.0 | 0.00 | 0.00 | 0.00 | 73 | 1025.0 |
| 20260502041103 | 51 | 334 | 2.0 | 5.0 | 0.00 | 0.00 | 0.00 | 73 | 1025.0 |
| 20260502035102 | 51 | 327 | 2.0 | 4.0 | 0.00 | 0.00 | 0.00 | 73 | 1025.0 |